RH
20 20 18 18 18 16 16 15 14 15 19 24 26 26 21 19 21 20 20 23 26 30 30 31 31 29 28 26 25 26 26 24 23 26 29 29 29 28 26 26 25 24 24 25 27 30 39 57 75 73 67 83 98 99 98 95 96 100 101 100 99 100 100 98 95 91 91 95 101 101 98 101 102 101 102 103 104 104 103 98 90 80 71 69 71
20 19 19 19 19 19 18 16 15 17 20 22 24 23 21 20 21 21 22 24 27 32 34 34 35 35 33 30 27 26 25 26 25 24 27 29 29 29 28 27 26 24 23 23 23 22 23 25 34 38 40 68 98 102 99 94 88 87 92 100 101 100 101 101 100 100 100 101 98 92 91 98 103 105 105 104 104 102 101 101 98 93 86 82 80
19 19 20 20 21 23 21 17 16 19 21 22 23 23 22 23 23 23 24 25 26 28 32 33 34 36 37 37 34 31 27 26 26 25 25 27 29 30 29 29 28 27 25 23 22 21 23 22 22 24 25 44 74 89 97 101 97 85 76 85 97 101 101 100 100 100 100 102 100 88 78 79 87 96 101 100 102 101 97 94 94 94 90 88 85
19 21 21 22 25 26 24 19 17 20 23 24 25 23 21 23 25 26 25 25 24 23 26 31 32 33 35 39 40 38 36 30 27 26 26 26 27 29 30 31 30 29 29 26 25 22 21 22 21 22 22 24 33 46 59 74 88 88 75 71 80 91 98 100 100 97 96 97 100 98 88 81 78 82 89 95 99 93 84 78 78 80 82 89 96
19 22 22 25 28 28 25 20 18 20 23 26 27 24 21 21 23 25 25 24 24 23 23 27 30 32 32 36 40 42 43 40 34 29 27 27 26 27 28 30 32 31 31 29 27 26 24 24 24 23 23 23 22 22 26 33 44 55 57 54 55 64 76 84 86 82 82 84 90 96 97 95 92 91 94 97 95 86 77 73 72 73 74 85 97
20 22 23 27 30 29 27 22 19 20 22 26 27 25 22 23 24 25 27 27 26 25 23 24 27 31 33 34 38 42 45 47 46 40 33 30 27 28 28 28 30 31 32 32 30 29 27 26 26 27 26 26 25 24 23 23 23 26 29 31 33 37 43 49 51 48 49 54 63 76 85 91 94 98 101 101 100 95 91 91 90 89 86 85 86
20 22 25 28 30 29 29 24 20 20 21 24 25 23 23 25 26 27 28 28 27 25 23 23 24 29 33 34 35 39 44 49 53 53 47 40 32 28 29 29 29 29 30 32 32 32 31 30 29 29 29 29 29 28 27 26 25 24 23 24 24 26 28 29 30 29 29 31 36 44 55 64 71 78 82 87 94 95 96 100 101 101 102 98 96
20 22 26 29 29 28 30 28 21 19 20 21 23 23 24 26 30 31 29 28 27 25 23 22 22 25 29 32 35 38 43 47 54 62 61 56 47 36 30 30 30 31 30 30 31 33 33 33 32 31 31 31 31 31 31 31 30 29 28 27 26 25 25 25 26 26 27 27 28 29 32 36 41 48 54 62 75 85 91 95 95 95 95 94 93
20 23 27 28 26 26 30 30 23 19 19 20 21 23 26 29 32 33 30 28 27 27 26 24 24 24 25 28 32 38 44 46 51 60 65 65 63 54 42 34 31 32 34 32 30 30 32 33 34 34 34 33 33 33 33 32 32 32 32 32 31 31 29 28 27 26 26 26 27 28 28 29 30 33 37 43 51 60 65 66 65 63 61 58 55
21 23 26 26 24 25 30 31 25 20 19 20 21 24 29 31 33 34 31 29 27 27 27 26 27 27 26 26 28 33 42 48 53 61 65 66 69 69 61 50 40 33 34 37 37 34 31 31 31 33 34 35 35 35 35 35 35 34 34 34 34 34 34 33 32 30 29 28 27 27 27 28 29 29 30 32 33 35 36 35 35 34 33 32 31
22 23 25 24 22 24 31 33 28 22 21 21 22 26 31 34 36 35 33 30 28 28 28 28 31 33 33 31 28 27 34 45 59 69 71 69 73 77 75 69 60 47 38 36 40 43 41 37 34 31 31 32 34 35 36 36 37 37 36 37 36 37 38 37 37 35 34 32 31 29 28 27 27 28 28 29 30 30 31 31 31 30 30 30 31
23 23 24 24 21 24 31 34 31 25 23 23 24 29 34 37 39 38 35 32 30 29 28 30 33 37 41 41 34 27 29 39 55 74 83 80 81 87 86 80 75 69 57 44 39 42 46 48 46 42 38 34 31 31 33 34 36 37 38 38 38 38 38 39 39 38 37 37 36 34 33 32 30 29 29 29 30 31 31 32 32 33 33 33 34
23 22 23 24 24 27 32 36 34 27 25 25 27 32 37 40 41 39 37 33 33 30 28 28 31 36 41 43 38 30 28 33 42 63 84 88 82 86 94 92 81 78 78 67 52 43 42 45 48 50 51 49 45 39 35 33 32 33 34 36 37 37 38 39 39 40 40 39 39 38 37 36 35 34 33 32 32 32 32 33 33 33 34 34 35
24 23 23 24 27 31 34 39 38 31 27 28 31 38 42 44 43 40 38 36 35 32 29 29 30 33 38 42 42 36 31 30 33 46 65 69 62 67 89 101 92 82 87 87 76 62 50 45 44 47 50 52 55 57 54 50 44 40 37 35 34 34 34 35 35 37 38 40 40 41 41 40 39 38 36 35 34 33 33 34 35 35 36 36 37
25 24 24 27 32 37 39 42 42 35 31 33 37 44 48 48 45 41 39 39 37 34 32 31 31 31 32 36 40 39 34 31 31 36 45 45 40 45 66 94 102 93 92 95 93 87 74 60 52 50 52 51 50 53 57 61 61 60 58 56 52 49 46 43 41 39 37 37 36 36 37 38 38 38 38 37 36 36 35 35 35 36 37 38 40
29 29 31 35 43 47 45 46 46 38 34 38 44 50 54 53 48 44 40 39 39 36 34 33 32 31 30 31 36 38 36 34 32 31 33 33 32 32 39 62 86 94 98 100 100 102 97 85 71 62 59 59 57 53 49 49 51 54 56 59 61 62 63 62 61 60 57 53 49 45 41 38 36 35 35 36 35 35 35 35 35 36 38 40 41
33 36 39 45 57 59 50 51 52 43 40 46 52 57 59 56 50 46 41 38 37 36 35 35 33 33 32 33 35 37 37 35 33 31 31 31 31 31 30 37 54 74 94 105 105 103 103 99 92 83 73 66 65 64 62 58 54 51 49 49 49 50 53 58 62 65 66 67 66 66 63 58 52 44 38 36 36 36 36 36 36 36 38 39 41
37 43 49 59 68 61 53 58 58 49 50 56 60 63 62 57 50 45 41 37 36 35 35 35 34 33 33 35 38 39 39 37 34 33 34 34 34 34 32 32 37 50 70 91 103 103 102 100 98 96 91 83 76 71 70 69 69 68 64 59 55 52 50 51 55 57 59 61 64 67 71 74 75 72 64 53 44 40 38 38 38 38 39 40 41
43 46 52 60 61 56 60 68 63 58 65 69 68 67 60 53 48 44 40 37 36 36 35 34 34 32 32 35 40 42 42 40 38 37 37 39 39 38 37 34 33 37 44 61 84 99 104 104 102 101 97 93 90 86 79 72 70 72 72 70 66 62 59 57 57 57 58 58 59 61 65 69 76 82 85 82 73 61 51 46 42 41 41 42 43
44 42 44 49 53 62 75 76 72 76 83 81 73 65 57 50 46 42 40 39 38 37 36 35 33 33 33 34 38 41 42 43 42 42 43 44 44 43 42 39 36 35 36 43 60 80 93 99 101 101 98 94 91 89 89 84 76 70 67 67 67 65 62 60 60 60 60 60 59 60 61 63 66 70 75 79 81 78 72 64 57 53 51 50 49
44 42 46 55 67 83 93 92 92 97 94 82 70 62 56 50 46 42 41 41 40 37 35 34 34 34 34 35 37 40 41 45 48 50 51 51 51 50 47 45 42 39 38 40 47 58 71 84 92 94 93 93 93 89 88 91 90 84 77 70 68 67 64 61 60 60 60 60 60 60 61 63 64 66 69 70 71 72 72 70 66 64 62 61 60
46 51 60 75 91 101 105 104 104 102 91 76 67 61 55 50 46 43 42 41 39 37 35 35 35 35 34 35 37 41 45 50 53 57 60 59 57 56 53 49 46 45 44 43 43 45 54 69 84 88 86 89 97 96 89 87 89 92 94 89 84 80 75 70 67 64 62 61 59 57 58 61 64 65 69 73 76 77 77 77 76 74 72 69 67
56 67 80 94 104 104 104 102 99 95 84 73 66 59 54 49 44 42 42 40 37 36 36 37 38 38 37 37 38 43 49 54 57 59 62 62 59 58 57 53 50 49 50 50 49 47 46 52 64 76 84 89 96 99 94 90 91 95 97 96 98 99 96 93 89 84 78 73 70 65 59 58 60 64 66 68 71 75 78 80 83 86 86 85 83
71 84 96 103 104 102 100 99 97 91 78 70 65 58 52 47 42 42 41 38 36 37 39 40 41 41 41 41 41 43 47 51 53 53 54 55 55 57 58 55 51 48 48 49 49 49 47 46 48 54 64 74 80 86 89 89 95 102 100 94 96 102 103 103 104 103 97 93 90 85 80 71 62 61 67 72 74 74 75 77 79 81 83 84 86
82 94 103 103 102 102 100 96 92 81 70 69 70 67 60 50 45 44 40 37 37 39 42 43 45 48 49 49 47 45 45 46 46 45 45 47 50 57 59 54 50 46 43 42 41 43 43 43 46 46 47 52 55 58 61 63 69 80 88 89 94 103 104 100 101 104 102 102 103 103 101 91 76 65 67 76 81 81 80 79 78 77 78 80 82
91 100 104 102 102 101 97 93 88 79 74 78 81 80 73 61 54 50 44 41 41 45 51 53 52 51 52 51 50 47 45 43 42 41 41 43 50 61 61 54 50 45 41 40 39 41 41 40 43 45 44 46 49 47 46 47 48 50 59 65 73 91 104 103 100 100 101 101 102 103 100 94 87 79 76 77 81 83 81 81 79 76 74 75 77
100 102 102 102 103 100 97 95 90 85 86 89 89 85 80 70 60 58 52 46 50 57 62 61 54 49 49 49 48 45 44 43 41 41 39 41 52 64 66 62 57 50 42 40 39 41 45 46 44 44 43 44 47 48 46 48 51 48 48 49 51 63 85 101 104 101 100 101 102 104 101 98 97 95 93 91 91 93 95 98 99 95 90 86 82
102 102 103 103 104 101 99 98 94 90 84 81 80 80 81 73 61 65 64 53 54 61 65 66 61 57 56 53 51 47 46 45 45 46 46 44 52 66 74 73 67 56 46 44 44 47 51 51 48 47 47 46 46 46 43 46 53 55 52 53 51 49 59 82 100 104 101 99 100 103 104 103 104 103 102 101 100 103 104 106 108 106 105 104 102
101 104 104 102 103 96 90 94 96 89 75 67 65 64 67 64 60 69 69 59 57 63 77 83 72 66 62 57 59 57 52 52 50 52 56 54 56 64 73 78 72 60 54 53 54 55 56 54 52 51 49 49 49 48 46 43 47 51 50 52 57 56 53 58 74 93 103 103 100 100 101 102 102 102 102 101 102 107 108 108 108 107 104 103 103
101 103 101 101 103 92 85 93 92 82 72 65 57 54 59 65 69 72 66 62 61 64 84 92 75 66 63 60 64 62 59 61 58 57 61 63 63 64 69 78 76 65 62 64 63 62 62 58 57 56 52 52 52 53 54 50 48 49 46 45 50 57 59 55 56 69 86 99 103 102 100 101 101 101 102 102 102 104 105 103 104 106 106 104 104
99 102 100 100 103 95 88 89 80 68 61 57 52 55 68 75 73 67 59 57 56 53 64 72 65 62 61 61 66 66 68 73 71 68 68 69 71 69 70 80 88 84 75 71 70 70 69 62 62 66 61 54 54 56 59 58 59 60 57 54 51 51 55 57 55 58 67 82 96 102 101 100 99 99 100 101 100 99 99 97 95 95 96 96 97
99 102 102 101 100 93 80 69 64 59 58 66 70 67 67 63 54 53 53 52 55 55 55 59 61 58 54 56 63 71 79 78 74 76 76 75 76 73 74 83 95 98 86 75 75 80 79 70 69 76 73 62 56 56 58 59 61 66 66 64 61 56 55 57 59 56 56 66 80 92 99 100 100 99 99 100 99 98 98 95 89 85 87 90 91
102 103 103 98 88 84 77 63 59 63 64 74 81 73 67 64 58 60 65 67 68 62 59 64 63 53 52 61 66 74 84 80 74 77 78 79 82 84 88 89 92 96 90 82 87 94 88 77 77 84 82 72 65 64 63 61 62 70 73 70 65 60 59 68 77 71 63 66 74 85 97 104 105 106 106 103 100 97 95 91 85 80 82 90 94
102 104 103 96 87 87 82 65 60 69 70 72 78 78 76 72 66 64 67 71 67 57 57 64 60 52 61 75 76 75 81 80 77 78 77 80 91 100 102 98 94 98 97 93 100 104 89 76 84 97 96 87 83 82 78 72 69 74 75 70 65 58 58 76 89 82 74 74 78 89 101 106 106 106 107 107 106 105 102 97 91 81 78 84 90
102 98 93 90 88 83 74 64 68 81 86 88 92 88 77 63 56 56 57 55 51 52 58 58 52 53 60 70 74 70 70 68 68 76 81 86 95 101 103 103 101 104 103 98 99 96 79 72 86 104 104 95 91 88 83 80 80 78 71 66 64 62 70 90 99 89 80 74 74 83 95 103 107 106 106 108 109 109 107 105 101 91 85 90 97
98 93 87 83 77 68 66 70 79 87 87 86 83 75 66 53 45 45 46 43 44 51 54 47 45 50 52 58 65 66 65 62 62 72 85 96 102 102 104 107 105 108 107 97 90 88 81 78 85 94 93 86 83 79 76 78 81 80 74 66 69 78 90 100 102 99 97 91 83 80 82 89 96 98 100 102 105 107 104 103 105 101 95 97 103
93 89 82 75 70 70 76 81 85 85 77 68 61 54 49 43 38 37 39 43 47 48 46 44 46 49 50 54 57 59 62 62 61 65 75 92 101 99 100 101 101 107 105 95 92 93 87 79 75 73 70 70 71 71 78 85 80 77 76 66 64 81 98 103 101 99 100 101 100 93 87 87 90 92 94 95 99 103 102 100 103 104 102 102 104
91 84 75 71 74 81 85 83 81 75 64 54 49 44 41 39 38 40 41 45 48 45 44 48 52 51 51 54 56 58 61 60 59 59 65 76 82 81 82 82 83 88 87 84 86 88 86 84 81 75 67 67 67 66 78 86 76 72 79 71 59 63 77 91 100 97 90 93 101 102 98 97 98 98 99 99 100 101 101 103 104 99 94 94 96
83 76 72 76 81 82 78 70 62 54 48 46 44 41 41 40 40 41 41 43 44 44 44 48 52 53 54 58 61 60 60 60 59 58 59 64 68 68 70 69 67 68 69 71 76 81 90 96 97 92 81 74 72 67 69 71 68 71 76 71 62 56 55 62 71 74 75 80 92 103 102 99 101 103 102 100 102 101 101 102 99 90 83 81 81
73 72 76 80 78 71 62 54 47 44 44 44 43 41 42 42 41 42 41 42 43 45 48 51 55 58 63 71 74 70 67 64 61 62 64 65 66 65 65 64 64 66 69 72 77 87 97 101 102 100 93 85 78 74 72 70 69 70 69 65 64 61 58 55 51 54 62 67 77 95 103 101 102 104 100 96 97 98 98 96 88 80 77 80 83
70 72 73 69 61 52 46 43 44 45 45 44 45 45 43 41 41 42 43 46 49 53 58 62 67 73 82 88 88 82 78 71 64 66 71 73 72 71 71 74 76 79 84 88 91 97 101 103 102 101 99 96 88 83 85 81 73 68 65 64 60 55 54 53 48 50 59 64 69 82 93 94 93 97 100 99 97 91 87 83 75 68 66 69 76
67 63 57 51 46 43 44 46 46 45 45 45 46 46 42 40 42 45 48 53 59 64 70 76 83 90 97 100 95 90 89 86 76 74 81 89 91 90 91 94 95 96 98 98 99 101 101 101 102 102 102 100 95 91 87 81 74 70 65 58 52 48 47 48 48 48 53 60 63 64 69 70 70 74 79 81 79 77 80 82 79 75 72 70 71
55 50 46 45 45 45 44 43 40 41 44 46 46 43 41 41 45 51 58 67 74 80 85 91 96 100 103 102 97 95 97 93 82 78 84 94 100 101 101 102 104 102 98 96 98 101 101 101 101 102 101 100 95 88 81 77 74 68 59 50 46 45 44 46 49 50 52 57 58 55 54 53 54 60 63 64 67 73 84 92 93 91 88 85 81
48 48 48 48 46 43 40 36 36 41 44 44 41 40 41 47 55 65 76 85 91 95 98 99 101 103 104 101 98 99 98 87 76 74 79 86 93 97 97 99 103 104 101 101 103 102 100 101 102 102 101 97 88 78 74 75 68 57 51 48 47 46 45 45 46 47 52 56 54 52 52 49 52 60 64 64 66 70 73 77 79 80 81 81 79
49 49 48 45 42 38 34 34 39 43 45 43 41 43 50 59 71 84 93 98 101 101 101 104 106 103 100 99 100 101 94 78 68 68 72 77 81 84 90 96 102 104 102 102 102 102 103 104 104 100 93 84 77 69 67 64 56 48 48 48 48 50 50 49 48 46 49 54 54 52 49 45 47 53 56 56 57 57 56 55 56 57 59 60 62
46 43 41 38 36 35 35 40 44 45 44 42 44 52 64 76 88 97 101 102 101 100 102 104 101 95 96 101 101 93 80 67 60 58 60 64 69 76 86 96 102 103 102 101 102 103 103 100 93 85 76 70 66 61 58 56 53 52 52 50 49 50 50 52 53 51 48 49 53 54 51 47 45 47 49 50 51 50 49 48 49 49 50 50 50
38 36 35 33 33 34 35 38 41 44 48 54 62 74 84 92 98 101 101 100 100 102 103 96 87 89 98 99 91 78 64 54 50 49 49 53 58 65 73 79 84 87 85 83 83 84 82 77 71 67 65 64 62 60 59 60 61 61 60 59 57 55 53 53 53 53 52 52 53 53 52 50 48 49 51 52 52 52 52 53 53 52 52 51 50
36 35 35 38 43 47 49 54 61 69 77 82 89 96 99 100 101 100 100 101 102 100 92 83 84 93 94 86 78 67 52 42 41 42 42 42 44 48 53 57 60 63 62 61 63 65 65 63 62 63 64 63 63 64 64 64 65 65 66 66 66 65 64 62 57 54 53 54 56 58 57 54 52 53 55 56 56 56 55 55 56 56 55 52 51
41 42 49 56 63 70 75 77 80 86 93 98 100 102 101 101 100 100 101 102 98 90 83 83 87 87 83 80 74 57 41 37 40 39 40 42 44 46 49 52 53 55 57 59 61 62 61 62 63 63 64 64 66 67 68 69 70 71 70 69 69 70 71 72 70 66 61 57 57 59 61 60 58 57 57 58 59 59 58 58 57 57 56 53 51
57 65 77 85 86 84 85 84 84 88 95 99 100 100 100 100 100 102 102 98 92 87 84 84 83 83 86 82 64 44 37 40 43 43 46 50 52 54 55 56 58 58 59 62 64 64 64 64 65 66 66 68 70 72 74 77 77 78 78 77 76 76 77 78 78 77 74 70 66 65 67 67 64 60 58 58 59 60 59 58 57 57 56 53 52
85 91 94 96 94 92 92 93 96 98 99 100 100 100 101 101 100 100 97 91 86 82 80 81 85 90 87 69 48 38 41 46 47 51 54 55 55 57 58 58 60 61 62 64 67 70 71 70 71 73 74 76 79 83 86 88 90 91 91 91 90 89 88 87 86 86 83 79 76 77 78 76 72 66 61 59 60 60 58 57 57 58 57 55 54
Wind_Speed
28 25 22 24 28 30 33 33 32 29 27 25 25 25 26 26 25 25 26 27 29 31 33 34 35 35 33 30 26 22 17 13 9 5 8 10 12 12 13 14 14 15 17 19 22 25 29 33 35 36 36 38 38 37 39 41 41 39 37 34 33 34 35 37 40 42 43 42 41 41 42 42 41 41 40 41 41 43 44 45 46 45 46 47 47
27 23 21 24 27 30 32 33 32 29 27 26 25 25 25 25 25 24 25 26 28 30 31 31 32 33 33 32 30 26 22 17 13 8 6 9 12 13 13 14 14 15 15 16 17 19 22 24 27 29 32 38 40 39 38 39 41 43 44 43 40 37 36 37 38 40 42 44 44 45 45 46 46 46 45 44 44 43 43 43 44 45 46 46 47
25 21 21 24 27 30 32 32 31 27 26 25 25 25 25 25 25 25 25 27 28 30 31 31 31 31 31 31 31 29 26 23 17 13 8 7 10 13 14 14 15 16 16 16 17 17 18 19 21 23 26 32 37 40 40 39 39 41 43 46 47 45 42 41 41 41 41 42 44 47 48 50 50 49 48 47 47 46 46 46 45 45 45 44 44
24 21 21 23 26 30 31 32 30 26 24 25 25 26 27 27 27 27 27 28 29 30 31 31 31 31 30 29 29 29 28 26 22 18 13 9 8 10 14 15 16 16 17 17 18 18 18 18 19 20 22 25 29 33 37 39 39 40 40 42 46 49 48 47 46 47 47 46 46 47 48 49 50 50 49 48 49 49 48 48 47 46 46 44 42
24 21 21 23 26 29 31 31 29 26 24 24 25 27 28 28 29 29 30 31 31 31 31 31 32 31 30 29 28 27 27 26 25 22 18 13 10 8 10 14 17 18 18 18 19 19 19 19 19 20 20 21 23 25 28 31 34 36 36 37 40 44 47 49 49 49 50 51 51 51 51 50 50 50 49 48 48 49 48 47 46 45 45 45 44
24 21 21 23 26 29 30 30 30 27 25 25 25 27 28 29 31 32 32 33 34 33 33 32 32 32 31 30 29 27 25 25 24 24 22 18 14 10 9 11 14 17 19 20 20 20 21 21 21 21 21 21 22 22 23 24 26 28 30 31 33 36 39 41 43 43 45 47 49 51 52 53 53 53 52 50 48 47 46 45 45 44 44 45 47
25 21 20 22 26 29 30 30 30 29 27 26 26 27 28 30 32 34 35 35 35 35 35 34 34 33 32 31 30 28 26 24 22 23 23 22 19 15 12 11 11 14 17 20 21 22 22 23 23 23 23 23 23 23 23 24 24 25 26 27 28 30 32 34 35 37 38 39 41 44 47 50 52 53 54 53 52 50 49 48 47 46 46 46 48
26 21 20 22 26 28 29 30 30 29 29 28 27 28 29 30 32 35 36 36 36 36 36 36 35 34 33 32 32 30 28 25 22 21 22 23 22 19 16 13 12 13 14 17 20 22 23 24 25 25 25 25 26 26 26 25 25 25 26 26 27 28 29 30 31 33 34 35 36 38 39 41 44 46 48 50 51 51 51 51 50 49 48 48 49
26 21 19 22 25 27 29 30 31 31 30 29 28 29 30 31 33 34 36 37 37 36 37 37 37 35 35 34 33 31 30 28 24 21 21 22 22 21 20 18 15 14 14 15 17 19 22 24 26 26 27 27 27 28 28 28 28 28 28 28 28 28 28 29 30 31 32 33 34 35 36 37 38 39 41 42 44 46 47 48 48 47 47 46 46
27 22 20 22 25 27 28 29 30 31 31 29 29 30 31 32 33 35 36 37 37 37 37 37 37 36 36 35 34 33 31 29 27 24 22 21 21 21 21 21 19 17 16 16 16 18 20 22 24 26 27 28 29 29 29 29 30 30 30 30 30 29 29 30 30 31 31 32 33 34 35 35 36 37 37 38 40 41 42 42 42 42 42 42 41
27 23 22 23 25 26 27 29 30 31 31 30 30 31 32 33 34 35 36 37 38 38 38 38 37 37 37 36 36 34 33 31 29 26 25 23 21 21 21 22 22 20 18 17 17 17 18 19 21 23 25 27 28 29 30 30 31 31 31 32 32 31 31 31 31 32 32 32 33 33 34 34 35 35 36 36 37 38 39 39 39 39 39 39 39
28 24 23 24 25 27 28 29 30 31 31 30 30 32 33 33 34 35 36 37 38 38 39 38 38 38 38 37 37 36 34 32 30 29 27 25 24 23 22 23 23 22 20 19 18 17 18 18 19 21 22 24 26 28 29 30 31 32 32 33 33 33 33 33 33 33 33 33 33 33 34 34 34 34 35 35 36 36 37 38 38 38 39 39 39
28 24 24 24 26 28 29 29 31 32 31 30 31 32 32 33 34 35 36 37 38 38 39 38 38 38 38 38 38 38 36 34 32 30 29 28 28 26 24 23 23 24 23 21 20 19 18 18 19 20 21 22 23 25 26 28 29 31 32 33 34 34 34 35 35 35 35 35 35 35 35 35 35 35 35 35 35 35 36 37 37 37 38 38 38
27 25 24 25 27 29 30 30 32 33 32 31 31 32 32 33 35 36 37 38 39 39 39 39 38 38 38 39 39 38 37 36 34 32 30 30 30 28 26 25 25 25 25 24 22 21 20 20 20 20 20 21 22 23 24 25 27 28 29 31 32 33 34 35 36 36 36 37 37 37 37 37 37 37 37 37 37 37 36 37 37 37 37 37 38
27 26 26 26 28 30 31 32 33 34 33 31 31 32 33 34 36 37 38 39 39 39 40 40 40 40 39 39 39 38 37 36 35 34 33 32 32 30 27 26 26 26 26 27 25 23 22 22 21 21 21 21 21 22 22 23 24 25 26 27 28 30 31 32 33 35 36 37 38 38 39 39 39 39 39 39 39 39 38 38 38 38 38 38 38
28 27 28 28 29 31 33 34 34 35 33 32 32 33 34 36 37 38 39 39 39 40 40 41 41 41 41 40 39 38 37 35 34 34 33 33 32 31 29 27 27 27 27 27 28 27 25 23 22 23 23 23 22 22 22 22 22 22 23 24 25 26 27 28 29 31 32 34 35 37 38 39 39 40 40 40 39 39 39 39 39 38 38 38 38
29 29 29 29 30 32 34 35 35 35 34 32 33 33 35 37 38 38 39 40 40 40 41 41 42 42 41 40 39 38 37 35 33 32 32 32 32 32 31 28 27 27 27 28 29 30 28 26 24 24 24 24 24 24 24 23 23 23 22 22 23 23 24 24 25 26 27 29 31 33 35 36 37 38 38 38 38 38 38 38 38 39 39 39 39
30 30 30 30 31 34 36 36 36 35 34 33 33 34 36 37 38 39 39 40 40 41 41 42 42 42 41 40 39 38 37 35 32 31 31 31 31 32 32 31 29 27 27 28 29 30 30 29 27 26 25 25 26 26 26 26 26 25 25 24 24 24 24 24 24 23 23 24 25 26 28 31 33 34 36 36 37 37 37 37 37 38 38 39 39
31 31 31 32 33 35 36 36 36 35 34 33 34 35 37 38 38 39 40 40 41 41 42 42 42 41 41 39 38 37 36 35 33 32 31 31 31 31 31 31 30 29 28 28 28 29 30 30 29 28 27 26 27 28 29 29 29 29 28 28 27 27 27 26 27 26 26 26 25 24 24 25 27 29 31 33 34 35 36 36 37 37 38 38 39
33 33 32 33 34 36 36 36 36 35 34 34 35 36 37 38 39 40 41 40 40 41 42 42 42 41 40 38 36 35 35 35 34 34 33 33 33 32 31 31 30 30 29 29 28 29 29 30 30 29 28 28 28 28 30 31 32 33 32 32 31 31 30 30 30 30 30 30 29 28 26 25 24 25 26 27 29 31 33 34 35 36 36 37 38
34 33 33 34 35 36 37 37 36 35 35 35 36 38 38 39 41 41 41 41 41 42 42 42 41 40 38 36 35 34 34 35 35 36 36 36 35 34 33 32 31 30 30 29 29 29 29 29 29 29 28 29 29 29 30 31 32 34 34 35 35 35 34 34 33 33 33 33 33 32 31 30 28 27 26 26 26 27 28 29 31 32 33 34 35
34 33 33 34 36 37 37 37 36 36 36 37 38 39 40 41 42 42 41 42 42 43 43 42 40 38 37 36 36 35 35 36 36 37 38 39 38 37 36 34 32 31 31 30 30 30 30 29 29 29 28 28 29 31 32 32 33 34 35 35 36 37 37 37 37 37 36 36 36 35 35 34 33 32 31 29 29 28 28 28 29 29 30 31 32
34 34 34 35 36 37 37 37 36 37 38 39 40 41 41 42 42 42 42 43 44 44 43 41 39 37 37 37 37 36 36 37 38 39 40 41 40 39 37 35 32 31 31 32 32 32 32 31 31 30 30 30 31 32 34 35 35 36 36 36 36 36 38 38 39 39 39 38 38 38 37 37 36 36 35 35 34 33 33 32 32 32 32 32 32
34 35 35 35 36 36 36 36 37 39 40 41 42 42 41 42 42 43 43 44 46 45 42 40 38 38 38 38 38 37 37 38 39 40 41 41 41 39 37 34 32 31 31 32 34 35 35 34 34 34 34 34 35 35 35 36 37 38 38 38 37 36 37 38 39 40 40 40 39 39 39 39 39 38 38 38 37 37 37 37 37 37 36 36 36
36 36 36 36 36 35 35 36 38 40 41 41 42 41 40 42 43 43 44 46 47 45 42 40 38 38 38 38 38 37 38 38 40 40 41 41 40 38 36 34 34 34 33 33 34 36 37 37 37 38 38 38 39 39 37 37 38 39 40 39 38 37 38 38 39 41 42 40 39 40 40 41 41 41 40 39 39 40 40 40 41 41 41 41 41
38 38 37 36 35 35 36 37 39 40 41 42 41 41 41 44 45 45 46 48 46 43 41 39 38 38 37 38 38 38 38 39 39 40 40 39 39 38 36 36 37 38 37 37 37 37 39 39 40 41 41 41 42 43 41 40 41 41 42 41 40 38 39 40 41 42 43 42 42 43 44 44 44 44 43 43 42 42 42 43 43 44 44 44 44
38 36 36 35 35 36 38 39 40 41 41 42 43 44 44 45 47 47 48 49 45 41 39 38 38 38 38 38 37 38 38 39 39 40 39 39 39 38 38 39 40 41 41 41 41 41 41 41 42 43 44 44 45 46 45 44 45 45 44 44 43 41 40 41 42 44 44 44 45 46 47 48 47 47 47 47 46 46 46 45 46 46 46 46 47
36 36 36 36 36 37 39 40 42 42 42 44 45 47 47 47 49 49 49 48 45 42 40 39 38 38 38 38 38 39 40 40 41 40 40 40 40 40 41 42 43 44 44 44 45 45 45 45 45 44 45 46 47 49 48 47 49 50 48 47 47 46 44 42 42 44 45 46 46 47 48 49 50 51 51 51 50 49 49 48 48 48 48 48 48
38 38 37 36 35 38 43 44 44 44 45 46 47 48 49 50 51 49 48 47 44 43 41 39 39 41 42 42 41 41 43 42 42 42 42 42 42 43 43 44 45 45 45 47 48 49 49 49 48 47 47 47 48 50 51 50 51 53 53 51 50 50 49 47 45 45 46 48 48 48 49 50 51 52 52 52 51 51 50 49 49 49 50 50 51
38 35 34 34 35 42 46 45 45 46 46 49 51 51 51 49 48 47 47 46 45 45 42 41 44 45 46 46 45 45 47 45 44 43 43 43 44 45 46 47 47 46 47 50 52 53 52 52 51 50 50 49 49 50 51 52 53 55 55 54 54 53 53 52 50 48 49 50 51 51 51 51 50 50 50 50 50 49 49 49 49 49 50 51 52
32 33 35 37 39 44 45 44 47 49 50 54 55 52 48 47 48 49 49 49 49 48 46 46 48 49 50 49 48 49 49 46 45 45 45 46 46 47 49 49 47 46 49 53 55 55 53 53 52 51 50 50 49 49 50 51 53 56 57 56 56 56 56 56 54 53 52 53 54 54 54 54 53 52 52 51 51 51 52 52 52 52 52 52 53
33 37 39 39 42 48 48 48 52 53 53 54 51 49 49 50 51 50 50 51 49 49 49 49 49 51 53 53 50 50 48 47 47 47 48 49 49 50 51 49 48 49 52 55 57 55 53 53 52 51 51 51 50 50 50 50 52 55 57 56 56 56 56 57 56 56 55 56 57 57 56 57 57 57 56 56 55 55 55 55 55 55 55 55 55
39 39 38 41 47 50 49 52 55 54 54 52 50 51 51 49 48 48 48 48 47 48 50 51 51 53 55 53 50 50 49 49 50 50 52 52 51 51 50 49 50 51 54 57 56 54 53 53 53 53 52 50 50 50 50 51 50 50 52 53 54 56 57 57 57 56 56 56 57 56 57 57 58 58 59 59 59 59 58 57 57 57 57 57 57
41 39 40 44 47 47 50 56 58 56 55 53 50 48 46 46 48 49 50 50 50 52 52 52 53 53 52 51 50 51 52 53 54 55 56 55 52 50 49 51 53 53 56 57 54 52 53 52 52 53 51 50 51 50 49 50 49 48 51 53 54 55 56 58 59 59 58 56 55 55 56 57 58 58 59 60 61 61 61 61 60 60 60 60 60
41 42 45 47 46 49 56 60 57 52 50 48 45 44 46 50 52 52 53 55 56 54 52 52 53 52 51 52 53 55 57 57 58 58 59 57 53 50 50 53 54 55 55 53 51 53 55 54 53 51 51 52 53 50 49 49 49 49 52 54 55 54 54 56 59 60 60 59 57 56 57 57 58 59 60 61 61 62 63 63 64 63 62 61 61
42 46 50 52 53 57 61 60 55 52 51 51 52 52 55 58 58 57 59 60 58 55 54 55 55 53 53 54 55 58 60 59 58 58 58 56 52 51 52 54 55 56 55 52 53 56 58 57 55 52 53 54 53 52 52 52 51 51 51 52 53 53 53 54 56 59 60 61 61 60 60 61 62 63 64 64 64 64 64 64 64 64 64 63 62
47 53 56 58 60 61 61 59 56 55 57 59 60 61 63 64 64 62 61 60 58 57 56 56 56 56 56 58 60 62 62 61 60 59 57 54 53 55 57 56 56 57 57 57 58 59 58 58 58 56 55 55 54 55 54 52 52 53 52 52 53 53 53 54 57 60 62 63 64 64 64 65 66 67 68 68 67 66 65 64 65 66 66 66 65
57 61 62 62 62 61 60 60 60 60 63 65 65 66 66 66 64 62 60 59 58 57 57 57 58 59 61 63 65 66 65 64 63 61 59 57 57 59 59 58 57 57 58 59 59 59 59 59 60 60 60 59 59 59 56 54 55 55 53 53 53 54 55 56 58 61 63 65 65 66 65 65 66 68 69 69 69 68 68 68 69 69 70 70 70
63 64 64 64 63 63 64 66 66 67 68 68 68 67 66 65 63 61 60 58 57 57 58 59 61 63 66 67 70 70 70 68 66 64 61 60 60 60 59 59 58 57 58 58 58 59 60 60 62 64 64 64 63 61 58 58 58 56 55 57 58 58 58 59 61 63 65 66 66 65 65 65 66 67 68 69 69 70 71 72 73 74 75 75 74
65 65 65 66 67 68 69 70 70 69 69 68 68 67 65 63 61 60 59 59 59 60 62 63 65 68 70 72 74 76 75 72 69 66 62 60 60 60 59 59 58 58 58 59 58 59 61 62 64 65 66 67 67 66 64 64 62 59 59 61 62 61 59 59 61 63 64 66 68 68 67 67 68 70 71 72 72 72 74 76 77 78 77 77 77
66 66 67 69 69 70 71 71 70 70 70 69 67 64 62 61 60 60 60 62 63 65 66 68 71 72 74 76 79 81 81 78 74 69 65 62 61 60 60 60 61 61 61 61 61 61 63 64 66 67 68 69 70 70 71 70 67 65 64 63 62 61 60 59 60 61 62 64 67 69 70 70 71 73 74 74 74 75 77 79 80 80 79 78 78
68 69 70 70 70 71 72 71 71 71 69 66 63 62 62 62 62 63 64 66 68 70 71 72 74 76 77 80 83 85 84 82 78 74 70 67 64 63 63 63 64 65 66 65 64 64 66 67 69 69 70 71 73 73 73 71 69 68 67 63 61 60 59 59 59 60 61 63 66 69 71 72 72 73 74 74 74 74 75 77 78 78 78 78 78
69 70 70 71 71 72 72 72 71 69 66 63 62 63 64 64 65 67 69 71 72 74 74 75 77 79 80 83 87 88 86 84 80 76 72 69 67 67 67 67 68 69 70 69 68 68 68 69 70 71 72 74 76 75 73 71 70 68 66 63 60 58 58 59 59 59 60 63 66 67 69 69 69 70 71 71 71 71 71 73 75 76 77 77 78
69 70 71 71 72 72 71 70 68 64 62 62 64 66 66 67 69 71 73 75 76 76 77 78 79 82 85 88 90 91 90 87 82 77 74 71 69 69 69 70 71 71 71 70 70 70 70 71 72 74 75 77 76 73 71 71 70 67 64 61 60 59 58 59 60 59 60 63 66 67 67 67 67 68 69 69 69 70 70 71 72 73 75 76 77
71 71 71 71 70 70 69 66 64 62 63 66 67 68 69 70 72 75 76 77 78 78 79 80 83 87 90 92 93 93 92 89 84 79 75 73 71 70 70 70 70 70 69 70 70 72 73 75 76 77 76 75 74 71 70 70 68 65 62 61 60 59 59 59 60 60 60 62 64 66 68 67 66 67 69 69 69 70 70 70 70 71 72 72 73
71 70 70 69 69 68 65 63 62 63 65 67 69 70 72 74 75 77 78 79 79 80 81 85 89 93 95 96 96 95 93 88 84 80 76 73 71 70 69 69 69 70 71 72 73 75 76 77 77 76 75 73 72 71 69 67 66 64 62 60 59 59 59 59 61 62 61 61 63 66 67 68 67 67 68 69 70 70 70 70 70 71 72 72 72
69 69 69 69 67 65 64 63 64 65 67 69 71 72 74 76 78 79 80 80 80 83 88 92 96 98 98 99 98 96 92 87 82 79 76 73 71 70 70 69 70 71 72 72 73 74 75 75 74 73 73 72 70 69 66 65 64 63 62 61 60 59 59 60 61 62 62 62 63 66 68 68 68 67 68 70 71 71 71 71 72 72 73 74 74
69 70 69 68 66 65 65 66 68 69 71 72 73 75 77 79 80 80 81 82 85 91 96 99 100 101 101 101 99 95 91 85 81 77 75 73 71 70 70 70 70 70 70 71 71 72 72 72 71 70 70 69 68 67 66 65 64 64 63 63 62 61 61 62 62 63 62 62 63 66 68 70 69 69 69 71 72 73 72 72 73 74 74 75 75
70 70 68 67 66 66 67 69 71 72 73 74 76 78 79 80 81 82 84 88 94 99 101 102 103 103 103 102 98 94 88 83 80 77 74 72 71 70 70 69 69 69 69 69 70 71 70 69 69 69 68 67 67 67 66 66 65 65 65 64 64 63 63 64 64 65 64 63 63 66 69 71 72 71 71 71 73 74 74 73 74 75 76 76 76
71 69 68 68 68 69 70 71 72 74 75 77 78 79 80 81 84 87 92 97 101 103 104 105 105 105 105 102 98 91 85 81 79 76 74 73 71 71 70 70 69 69 68 68 69 71 71 70 69 70 69 69 69 68 68 68 68 68 67 67 66 66 66 66 66 67 67 65 64 65 68 72 74 74 73 72 73 75 75 75 75 76 77 77 77
71 70 70 70 71 71 73 74 76 77 78 79 80 81 83 87 91 95 99 103 105 105 106 107 107 106 105 101 95 88 83 81 79 77 75 74 73 72 72 71 71 71 70 69 70 72 73 73 72 72 72 72 72 72 72 72 72 72 71 71 70 70 70 69 69 70 70 68 66 66 68 71 74 75 75 74 75 76 77 76 76 77 78 78 78
Wind_Direction
345 343 344 348 351 353 355 354 354 354 352 348 345 348 353 355 356 1 10 16 19 20 22 23 22 22 20 18 13 9 10 11 1 313 263 250 244 241 240 238 236 229 224 222 220 221 222 223 226 230 228 224 226 230 233 233 233 231 229 229 230 232 237 242 246 250 253 253 252 252 252 249 248 250 253 254 255 256 258 260 262 262 262 263 265
347 345 346 350 353 356 357 356 355 355 356 355 355 357 0 1 359 2 8 13 16 18 19 20 21 21 20 20 18 14 10 8 7 355 306 267 256 252 251 249 248 246 241 236 232 228 225 224 225 227 228 225 226 230 233 235 237 237 235 234 234 235 236 237 239 243 247 249 251 252 251 252 254 257 258 259 259 259 260 261 262 263 264 266 269
349 345 347 352 355 358 358 357 355 355 358 359 1 5 8 7 4 5 8 10 13 15 16 16 18 19 19 19 19 17 13 9 6 1 347 303 271 260 258 258 257 257 256 251 247 244 239 236 233 231 229 226 227 230 233 235 237 240 239 237 238 240 242 241 241 242 243 246 250 252 253 254 256 259 262 263 264 264 265 267 267 267 268 270 271
350 345 347 353 356 358 358 358 356 355 357 360 3 6 11 12 10 8 9 10 11 13 14 14 14 15 16 16 16 16 14 12 8 2 355 339 304 274 262 259 260 260 261 260 257 254 251 248 246 243 240 235 233 233 234 236 238 241 242 241 240 242 244 245 245 245 246 247 249 251 253 253 254 257 261 264 265 267 268 270 270 269 268 267 268
349 345 347 352 356 357 358 359 357 355 354 356 359 2 7 10 11 9 9 10 10 11 12 12 11 10 11 12 12 12 12 10 9 6 359 348 331 303 277 263 260 259 259 261 260 258 256 254 252 251 250 248 245 242 240 239 239 241 243 244 243 243 244 245 247 249 250 251 251 251 251 252 253 255 258 261 263 265 268 269 268 268 266 262 263
347 344 346 350 355 356 357 358 357 356 353 353 355 358 2 5 6 6 6 7 8 8 9 9 9 7 7 8 8 8 8 7 6 5 2 354 342 323 300 278 265 260 258 258 259 259 258 257 256 255 254 254 253 252 250 248 246 245 244 245 245 245 246 247 249 251 252 252 252 252 251 251 253 255 257 260 261 262 264 265 266 266 265 262 262
346 343 344 347 351 354 355 355 355 355 353 353 354 357 1 3 3 3 4 4 4 5 5 6 6 4 2 2 3 2 3 3 1 0 359 356 349 337 319 297 278 267 262 259 259 259 260 259 258 257 257 256 256 256 255 254 253 252 251 250 249 249 249 250 251 252 253 253 253 253 253 253 254 255 257 259 259 259 260 262 264 264 265 264 265
345 341 341 344 348 351 353 353 353 353 353 353 353 356 359 0 1 0 1 2 1 2 2 2 2 1 358 357 358 357 356 357 356 354 353 352 349 344 333 317 297 280 269 264 260 259 259 260 260 260 259 258 258 257 257 257 256 255 255 255 255 254 254 254 254 255 254 254 254 254 255 255 255 256 257 257 258 258 259 261 263 264 265 265 266
343 339 337 341 346 349 350 351 350 351 352 353 353 355 356 357 358 358 358 359 359 358 358 358 357 356 355 353 352 351 350 350 350 349 348 347 345 343 340 331 317 299 283 272 266 262 260 259 259 260 260 260 260 260 259 259 258 257 256 256 257 257 258 258 258 258 257 257 256 256 256 256 256 257 257 257 258 258 259 260 262 263 264 264 265
340 335 332 336 343 346 348 349 349 349 350 351 352 352 353 354 355 355 355 356 356 354 354 354 353 351 350 349 347 345 344 345 345 344 342 342 340 339 338 335 327 316 304 290 279 272 266 263 260 259 260 260 260 260 261 261 261 261 260 259 258 259 259 260 260 260 260 260 260 259 258 257 257 257 257 257 258 259 260 260 261 261 262 263 264
338 332 329 332 338 343 345 347 347 346 347 348 349 349 350 350 351 351 351 352 352 351 350 349 348 347 345 343 342 341 340 338 339 338 336 336 335 333 332 331 329 324 317 309 298 288 280 274 269 265 262 261 260 260 260 261 262 262 262 261 261 261 261 261 261 261 261 262 261 262 261 261 261 260 260 259 260 260 261 262 262 262 262 262 263
336 331 328 330 335 339 342 345 345 344 344 344 345 346 346 347 347 348 348 348 349 348 348 346 344 342 340 338 337 337 336 334 332 332 330 328 328 326 323 323 323 323 320 315 309 303 296 289 283 278 273 269 266 265 263 262 262 262 262 262 262 261 261 261 261 262 262 262 262 262 262 263 263 263 263 263 263 264 264 265 265 265 265 265 264
333 330 329 329 332 336 339 341 342 342 341 341 342 343 343 344 344 345 344 344 344 345 345 344 341 339 337 335 334 334 333 331 328 328 325 322 321 319 316 315 315 317 319 316 310 306 304 301 297 293 287 283 278 274 272 269 266 265 263 263 262 262 262 262 262 262 262 262 262 262 262 262 263 263 263 263 264 265 265 266 267 267 267 267 267
331 330 329 329 330 333 336 338 339 339 339 338 338 340 341 341 342 342 342 342 341 341 342 341 339 336 334 332 331 331 330 328 326 325 323 319 318 315 312 309 308 310 312 312 310 307 303 302 303 302 298 293 288 283 280 277 274 272 270 268 267 266 266 265 264 264 264 264 264 263 263 263 263 263 263 263 263 263 264 264 265 266 267 267 267
329 329 328 328 329 331 334 335 335 336 336 336 336 337 338 339 340 340 340 340 339 338 338 337 335 334 332 330 328 328 328 327 325 323 322 320 318 315 310 303 300 303 306 306 306 307 304 301 300 300 300 298 294 290 286 283 281 278 277 275 273 272 271 270 269 268 268 267 266 266 265 265 264 264 264 264 264 264 264 264 264 264 265 266 266
328 328 328 328 328 329 331 331 331 332 333 333 334 335 336 337 338 339 338 338 336 335 335 334 332 331 330 328 327 326 326 326 324 322 322 322 320 317 312 303 298 299 301 302 302 302 303 301 298 295 294 295 294 293 291 289 287 285 283 281 279 278 276 275 274 272 271 270 269 268 267 267 266 266 265 265 265 265 266 265 265 265 265 265 266
327 328 328 327 327 326 327 327 327 328 330 331 331 332 334 335 337 337 337 336 334 333 332 331 329 328 327 326 325 325 325 325 323 322 323 323 322 320 316 310 303 299 298 298 298 298 299 299 298 294 290 289 289 289 289 288 287 286 285 285 284 283 282 281 281 279 277 275 272 270 269 268 268 267 267 267 266 266 266 266 266 266 266 266 266
327 327 327 325 323 323 323 323 324 325 327 328 328 330 332 335 335 335 335 334 332 330 329 328 327 326 326 324 323 323 323 323 322 322 322 323 323 322 319 315 310 304 298 295 294 294 295 297 297 295 292 288 285 284 283 282 282 281 281 280 281 282 283 283 284 284 283 282 280 277 274 271 269 268 268 267 267 267 267 267 267 267 266 267 267
328 326 324 322 320 320 320 321 321 322 324 325 326 329 332 334 334 333 333 332 330 329 327 326 325 325 324 323 322 322 322 322 321 320 320 321 320 320 319 316 313 309 305 299 294 292 292 294 295 295 294 291 286 282 279 277 276 276 276 277 277 277 279 280 281 283 283 283 282 281 279 276 272 270 268 267 267 267 267 267 267 267 267 267 267
326 323 321 320 319 319 318 318 319 319 321 322 325 329 332 333 333 332 330 329 328 327 326 324 323 323 323 322 322 321 321 320 319 318 318 318 318 318 317 314 312 311 310 307 300 295 292 292 292 293 294 293 288 283 279 276 274 273 273 273 274 274 275 276 278 279 281 281 280 279 277 276 275 273 271 270 269 268 267 267 267 267 268 268 268
323 320 319 318 318 317 316 316 316 317 319 322 325 329 331 332 331 330 328 327 327 326 325 323 322 322 322 322 321 321 320 319 317 316 316 316 316 315 314 312 309 308 308 308 306 303 298 294 292 293 294 292 289 286 283 281 279 275 272 271 271 272 273 273 275 276 277 278 278 276 274 273 273 274 274 273 273 272 271 271 270 270 270 270 270
320 318 317 317 316 314 314 313 314 315 319 322 326 328 329 330 330 328 327 326 326 326 324 323 322 321 321 321 320 319 318 317 316 314 314 314 314 314 312 310 308 305 304 305 305 305 302 298 295 294 294 293 290 289 288 286 285 283 279 273 271 271 272 272 272 273 274 275 276 275 274 272 270 270 270 271 272 272 272 273 273 273 273 273 273
317 317 316 315 313 312 311 311 313 317 321 324 326 327 328 328 328 327 326 326 326 325 323 322 321 320 320 320 319 317 316 315 314 313 313 313 313 313 311 309 307 305 304 303 303 303 301 299 296 294 293 292 290 289 289 289 288 287 284 280 275 273 273 273 273 272 272 272 273 274 274 273 271 269 269 270 270 270 270 271 271 272 272 273 274
316 315 313 311 310 308 308 310 315 320 323 325 325 325 326 326 327 326 326 326 326 324 322 321 319 319 318 317 317 316 314 314 313 313 313 312 313 312 310 308 306 305 304 303 302 301 300 298 295 292 290 289 288 286 287 287 286 284 283 282 280 277 275 275 275 274 273 273 273 273 273 273 271 270 270 270 270 271 271 271 271 271 271 272 272
315 312 309 307 306 306 309 314 318 322 324 325 325 324 324 326 326 326 326 326 324 323 321 319 317 317 317 316 316 315 315 314 314 314 313 313 313 311 308 307 306 306 305 305 304 303 300 298 295 291 289 287 286 284 284 284 284 282 281 280 279 277 275 274 273 273 273 273 273 272 271 270 269 269 269 269 270 271 271 272 272 272 272 272 272
312 308 304 303 304 309 313 317 321 324 326 326 325 323 323 325 326 325 325 325 322 321 320 318 318 317 316 315 315 315 315 315 315 314 313 313 312 309 306 305 305 305 304 304 304 303 301 299 295 292 288 286 285 283 282 282 282 281 281 280 278 275 273 271 270 270 271 271 271 270 270 270 270 270 269 269 269 270 271 272 272 273 272 272 272
307 302 301 303 308 314 318 321 324 326 327 327 325 324 322 323 325 323 322 322 321 320 319 317 318 318 317 316 315 316 317 316 316 314 313 312 311 307 304 303 304 303 303 303 303 303 301 298 295 292 289 287 284 282 281 281 280 280 280 280 280 277 274 271 270 270 270 270 269 270 271 273 273 273 272 272 271 271 271 272 272 273 273 273 272
301 300 302 307 313 320 322 322 324 324 325 324 322 321 319 319 320 319 317 319 319 318 317 316 317 318 318 317 315 316 316 315 315 314 313 311 308 305 302 301 301 301 301 302 302 302 301 298 295 291 289 287 284 282 280 279 278 278 277 278 279 278 276 272 271 270 270 270 269 268 269 270 271 271 272 271 271 271 271 271 270 270 270 271 271
300 302 307 311 316 321 322 319 319 319 319 321 319 318 316 315 315 314 314 317 318 317 316 315 316 317 318 317 314 314 315 314 313 313 313 312 308 305 301 299 298 298 300 302 302 301 301 299 296 293 290 288 286 284 282 280 278 276 275 274 275 276 275 274 271 269 268 269 269 268 267 266 266 267 267 268 268 269 269 270 270 270 269 269 269
305 307 310 312 313 319 320 317 316 315 315 316 316 314 313 313 313 313 314 315 316 316 314 313 314 316 317 316 313 314 314 312 310 310 310 310 308 305 302 299 296 296 299 303 303 302 301 300 298 296 293 291 289 287 286 284 281 279 278 275 273 273 273 273 272 270 269 267 267 267 267 266 266 266 266 266 266 266 267 268 269 270 270 269 269
309 309 308 309 312 317 319 315 313 313 313 313 313 313 313 313 312 311 311 312 312 312 311 311 313 315 317 316 313 313 313 310 308 308 307 307 306 305 303 299 296 295 299 303 303 301 300 300 299 296 295 293 291 289 287 286 284 282 282 279 276 274 272 271 270 270 270 269 267 266 266 266 266 266 266 266 265 266 267 268 269 270 270 269 268
306 307 305 306 310 314 314 312 312 313 313 313 311 311 311 310 310 309 309 309 309 310 310 310 311 314 315 313 311 312 311 309 308 307 306 305 304 304 302 300 297 296 298 301 302 300 299 301 301 298 296 295 292 291 289 287 285 282 281 279 278 277 275 274 271 269 268 268 268 268 267 267 267 267 267 266 266 267 267 269 270 271 270 270 269
305 307 304 305 309 310 310 311 312 311 311 310 306 306 308 309 310 309 308 308 307 309 309 309 309 311 313 311 310 312 312 309 308 307 306 305 304 302 300 299 298 297 297 300 300 299 300 303 303 301 299 298 296 294 293 292 288 282 279 278 278 277 276 276 274 271 268 267 267 269 270 270 269 269 269 269 268 268 268 269 270 271 270 269 268
302 305 304 307 309 308 308 311 311 309 308 308 305 305 308 310 310 308 307 305 305 306 307 307 308 310 312 310 309 311 312 309 308 307 306 305 302 299 298 298 298 297 297 299 297 297 299 302 302 300 297 299 299 297 296 296 291 283 280 280 279 277 275 274 273 272 271 269 269 270 271 271 271 271 271 271 270 270 270 270 271 272 271 269 267
297 302 306 308 307 305 307 309 310 308 307 308 306 305 306 308 307 305 304 303 303 303 304 305 307 308 310 309 308 310 310 308 306 305 304 303 300 297 297 298 297 296 297 296 293 295 298 299 299 296 294 297 299 297 297 298 294 288 285 282 279 276 273 272 272 272 272 271 270 270 270 271 271 271 271 271 272 272 272 273 273 273 272 270 268
297 301 304 304 302 303 306 307 306 304 303 304 303 302 302 304 304 303 302 301 301 301 301 304 306 308 309 309 309 310 310 308 307 305 302 300 297 295 296 296 295 295 295 293 292 294 297 298 297 293 292 295 297 296 296 296 293 291 290 286 281 275 271 269 269 270 271 271 271 270 270 270 271 271 272 272 273 273 273 273 273 273 272 271 270
297 299 300 301 301 303 305 305 303 301 300 301 302 301 302 303 303 302 301 301 301 301 302 305 307 309 310 312 312 312 310 309 307 305 302 298 293 293 293 292 292 291 291 292 293 294 295 295 294 292 292 295 296 296 295 294 294 291 289 288 285 278 272 268 266 268 269 270 271 270 270 270 270 271 271 272 272 272 271 271 270 271 272 272 271
295 298 299 300 301 302 302 301 300 299 300 301 302 302 303 303 303 302 302 301 301 302 304 306 309 312 314 316 316 315 312 309 307 305 302 297 293 293 292 291 290 289 290 291 293 293 294 294 293 294 295 295 297 297 294 293 295 291 286 287 286 281 274 269 267 267 268 269 270 271 271 270 269 269 269 270 270 270 269 269 269 270 271 271 271
295 297 299 300 300 300 299 299 299 299 300 301 302 302 302 302 302 302 302 302 302 303 305 308 311 314 316 317 318 317 315 311 308 306 302 298 295 294 292 292 291 291 291 292 293 293 293 293 293 294 296 297 298 298 294 293 295 291 287 288 288 283 278 272 269 268 267 266 266 267 268 268 268 268 268 269 269 269 269 269 269 271 272 272 271
296 297 298 298 299 298 298 299 300 300 300 301 301 301 301 302 302 303 303 303 303 305 307 310 313 315 316 316 316 317 317 313 310 307 304 300 296 294 293 293 293 294 295 295 294 294 293 293 293 293 295 296 298 298 297 296 295 292 290 290 289 285 280 276 272 269 266 265 264 264 264 265 266 269 270 270 270 269 270 270 270 271 272 272 271
296 296 297 297 298 298 299 299 300 300 300 300 299 299 301 302 303 304 305 306 308 309 311 313 314 314 314 314 314 315 316 315 313 311 307 303 300 297 296 296 296 297 297 296 295 294 292 292 292 292 294 295 296 298 298 297 296 295 293 292 290 286 282 278 274 270 267 266 264 263 263 263 266 268 269 269 270 271 271 272 272 272 272 272 271
295 296 296 297 297 298 299 299 300 300 299 298 297 298 300 302 304 306 309 311 312 313 313 313 313 312 312 312 312 314 315 316 315 312 309 306 303 300 298 297 296 296 296 295 293 292 291 291 291 292 292 293 295 296 296 296 296 296 295 294 291 287 283 280 276 273 270 268 266 265 264 265 266 268 268 269 270 271 272 272 273 273 273 273 272
295 296 296 297 297 298 298 299 299 297 296 296 297 298 301 304 307 310 312 313 313 313 312 311 310 310 310 310 311 313 314 315 313 311 308 305 301 298 296 294 293 293 293 292 291 290 290 290 290 290 291 292 294 294 295 295 295 296 295 293 291 288 285 282 279 276 274 271 270 269 268 268 268 269 270 270 271 271 271 272 272 273 273 273 273
295 295 296 296 297 298 298 298 296 294 293 295 297 300 303 307 310 312 313 313 312 310 309 309 308 308 309 310 312 313 314 314 312 310 307 304 300 296 294 292 292 292 291 291 291 290 290 289 289 289 290 292 293 293 294 295 295 294 293 292 290 289 287 285 282 280 277 275 274 272 272 271 271 271 272 272 272 271 271 271 271 272 272 272 272
294 295 295 296 297 297 297 296 294 292 293 296 299 303 307 309 311 311 311 310 309 308 307 307 307 308 309 310 311 313 313 312 311 308 306 303 300 297 295 294 293 292 291 290 289 289 289 289 289 290 291 292 292 294 294 294 294 293 291 290 289 288 287 286 284 282 279 277 276 275 274 273 273 272 272 273 273 272 272 272 272 272 272 271 271
294 295 296 296 296 296 296 296 294 294 296 299 303 306 309 309 309 308 308 307 306 305 305 306 307 308 309 310 311 312 312 311 309 307 305 302 300 298 296 294 291 290 288 288 287 288 288 289 290 291 292 293 293 294 294 293 293 292 291 290 288 287 286 285 283 282 280 278 278 277 276 275 275 274 274 274 273 273 273 273 273 273 272 272 271
295 295 296 297 297 297 297 298 299 301 304 306 307 308 308 307 306 305 304 304 304 304 305 306 307 308 309 310 311 311 311 309 308 306 304 302 299 297 295 293 291 290 289 289 289 289 289 290 291 292 293 293 293 293 293 293 293 292 292 291 289 288 286 284 282 280 280 279 278 277 277 276 275 275 275 274 274 273 273 273 273 273 273 272 272
297 297 298 299 299 299 301 303 305 306 307 307 306 306 304 303 302 302 302 302 303 304 305 306 307 308 309 310 311 311 310 308 307 305 303 301 299 298 296 295 293 292 292 292 292 291 291 291 292 292 292 292 292 293 293 293 292 292 292 291 290 289 287 285 283 281 279 278 277 277 277 276 275 275 274 274 274 274 274 273 273 273 273 273 273
300 301 301 301 302 302 303 304 305 305 305 304 303 302 301 300 299 300 300 301 303 304 305 306 307 308 309 310 310 310 309 307 305 304 303 301 300 299 297 296 295 294 294 293 292 292 291 292 291 291 291 292 292 293 293 293 292 292 291 290 290 289 288 286 285 283 281 279 278 277 278 277 276 274 274 274 274 274 274 274 274 274 274 274 274
304 304 303 303 304 304 304 304 304 303 302 300 299 298 297 297 298 299 300 302 303 305 305 306 307 308 309 310 310 309 308 306 304 303 303 301 300 298 297 296 295 294 294 293 293 293 293 293 292 293 293 293 294 294 294 293 293 292 292 291 290 289 288 287 285 284 282 281 279 278 278 278 277 276 275 274 274 274 274 274 274 274 274 274 274
305 305 304 303 303 303 302 302 301 300 298 296 295 295 295 296 297 299 301 302 304 304 305 306 307 308 308 308 308 308 306 304 303 303 302 300 299 298 297 296 295 295 294 294 293 293 294 294 294 295 295 295 295 295 295 294 294 293 293 292 291 290 288 287 286 285 283 282 280 279 278 277 277 277 277 276 275 275 275 275 275 275 275 275 275